$Date,$Time,DM0201B,DM0203B,DM0205B,DM0207B,DM0209B
05/05/99,00:00:01,6,358,-25,1,954
05/05/99,00:05:01,6,358,-25,1,954
05/05/99,00:10:01,6,358,-25,1,954
05/05/99,00:15:01,6,358,-25,1,954
05/05/99,00:20:01,6,358,-25,1,954
05/05/99,00:25:01,6,358,-25,1,954
05/05/99,00:30:01,6,358,-25,1,954
05/05/99,00:35:01,6,358,-25,1,954
05/05/99,00:40:01,6,1,-25,1,954
05/05/99,00:45:01,6,1,-25,1,954
05/05/99,00:50:01,6,25,-25,1,954
05/05/99,00:55:01,6,25,-25,1,954
05/05/99,01:00:01,6,25,-25,1,954
05/05/99,01:05:01,6,25,-25,1,954
05/05/99,01:10:01,6,25,-25,1,954
05/05/99,01:15:01,6,25,-25,1,954
05/05/99,01:20:01,6,25,-25,1,954
05/05/99,01:25:01,6,25,-25,1,954
05/05/99,01:30:01,6,25,-25,1,954
05/05/99,01:35:01,6,25,-25,1,954
05/05/99,01:40:01,6,25,-25,1,954
05/05/99,01:45:01,6,25,-25,1,954
05/05/99,01:50:01,6,25,-25,1,954
05/05/99,01:55:01,6,45,-25,1,954
05/05/99,02:00:01,6,67,-25,1,954
05/05/99,02:05:01,6,67,-25,1,954
05/05/99,02:10:01,6,67,-25,1,954
05/05/99,02:15:01,6,67,-25,1,954
05/05/99,02:20:01,6,67,-25,1,954
05/05/99,02:25:01,6,67,-25,1,954
05/05/99,02:30:01,6,357,-25,1,954
05/05/99,02:35:01,6,335,-25,1,954
05/05/99,02:40:01,6,335,-25,1,954
05/05/99,02:45:01,19,289,-25,1,954
05/05/99,02:50:01,19,289,-25,1,954
05/05/99,02:55:01,19,278,-25,1,954
05/05/99,03:00:01,8,278,-25,1,954
05/05/99,03:05:01,8,278,-25,1,954
05/05/99,03:10:01,8,278,-25,1,954
05/05/99,03:15:01,10,263,-25,1,954
05/05/99,03:20:01,10,275,-25,1,954
05/05/99,03:25:01,10,275,-25,1,954
05/05/99,03:30:01,0,275,-25,1,954
05/05/99,03:35:01,0,286,-25,1,954
05/05/99,03:40:01,12,286,-25,1,954
05/05/99,03:45:01,12,286,-25,1,954
05/05/99,03:50:01,2,286,-25,1,954
05/05/99,03:55:01,14,286,-25,1,954
05/05/99,04:00:01,15,286,-25,1,954
05/05/99,04:05:01,5,286,-25,1,954
05/05/99,04:10:01,5,296,-25,1,954
05/05/99,04:15:01,5,296,-25,1,954
05/05/99,04:20:01,5,296,-25,1,954
05/05/99,04:25:01,5,1,-25,1,954
05/05/99,04:30:01,5,1,-25,1,954
05/05/99,04:35:01,5,338,-25,1,954
05/05/99,04:40:01,5,338,-25,1,954
05/05/99,04:45:01,5,338,-25,1,954
05/05/99,04:50:01,5,42,-25,1,954
05/05/99,04:55:01,5,42,-25,1,954
05/05/99,05:00:01,15,42,-25,1,954
05/05/99,05:05:01,26,42,-25,1,954
05/05/99,05:10:01,26,42,-25,1,954
05/05/99,05:15:01,15,42,-25,1,954
05/05/99,05:20:01,15,42,-25,1,954
05/05/99,05:25:01,5,42,-25,1,954
05/05/99,05:30:01,5,42,-25,1,954
05/05/99,05:35:01,5,42,-25,1,954
05/05/99,05:40:01,5,42,-25,1,954
05/05/99,05:45:01,5,42,-25,1,954
05/05/99,05:50:01,5,42,-25,1,954
05/05/99,05:55:01,16,28,-25,1,954
05/05/99,06:00:01,18,359,-25,1,954
05/05/99,06:05:01,4,359,-25,1,954
05/05/99,06:10:01,4,359,-25,1,954
05/05/99,06:15:01,5,1,-25,1,954
05/05/99,06:20:01,5,1,-25,1,954
05/05/99,06:25:01,5,32,-25,1,954
05/05/99,06:30:01,5,32,-25,1,954
05/05/99,06:35:01,5,32,-25,1,954
05/05/99,06:40:01,5,32,-25,1,954
05/05/99,06:45:01,5,32,-25,1,954
05/05/99,06:50:01,5,32,-25,1,954
05/05/99,06:55:01,5,32,-25,1,954
05/05/99,07:00:01,5,32,-25,1,954
05/05/99,07:05:01,5,32,-25,1,954
05/05/99,07:10:01,5,32,-25,1,954
05/05/99,07:15:01,5,32,-25,1,954
05/05/99,07:20:01,5,359,-25,1,954
05/05/99,07:25:01,5,359,-25,1,954
05/05/99,07:30:01,5,359,-25,1,954
05/05/99,07:35:01,5,359,-25,1,954
05/05/99,07:40:01,15,359,-25,1,954
05/05/99,07:45:01,16,359,-25,1,954
05/05/99,07:50:01,27,1,-25,1,954
05/05/99,07:55:01,27,1,-25,1,954
05/05/99,08:00:01,16,1,-25,1,954
05/05/99,08:05:01,16,1,-25,1,954
05/05/99,08:10:01,16,1,-25,1,954
05/05/99,08:15:01,4,1,-25,1,954
05/05/99,08:20:01,15,1,-25,1,954
05/05/99,08:25:01,4,348,-25,1,954
05/05/99,08:30:01,4,324,-25,1,954
05/05/99,08:35:01,4,324,-25,1,954
05/05/99,08:40:01,4,324,-25,1,954
05/05/99,08:45:01,4,324,-25,1,954
05/05/99,08:50:01,4,324,-25,1,954
05/05/99,08:55:01,4,324,-25,1,954
05/05/99,09:00:01,4,324,-25,1,954
05/05/99,09:05:01,4,324,-25,1,954
05/05/99,09:10:01,4,324,-25,1,954
05/05/99,09:15:01,4,324,-25,1,954
05/05/99,09:20:01,4,324,-25,1,954
05/05/99,09:25:01,4,324,-25,1,954
05/05/99,09:30:01,4,324,-25,1,954
05/05/99,09:35:01,4,3,-25,1,954
05/05/99,09:40:01,18,29,-25,1,954
05/05/99,09:45:01,8,29,-25,1,954
05/05/99,09:50:01,8,29,-25,1,954
05/05/99,09:55:01,8,29,-25,1,954
05/05/99,10:00:01,8,29,-25,1,954
05/05/99,10:05:01,8,29,-25,1,954
05/05/99,10:10:01,8,52,-25,1,954
05/05/99,10:15:01,8,66,-25,1,954
05/05/99,10:20:01,8,78,-25,1,954
05/05/99,10:25:01,8,78,-25,1,954
05/05/99,10:30:01,8,90,-25,1,954
05/05/99,10:35:01,8,160,-25,1,954
05/05/99,10:40:01,1,160,-25,1,954
05/05/99,10:45:01,12,160,-25,1,954
05/05/99,10:50:01,12,150,-25,1,954
05/05/99,10:55:01,12,150,-25,1,954
05/05/99,11:00:01,12,150,-25,1,954
05/05/99,11:05:01,12,150,-25,1,954
05/05/99,11:10:01,2,150,-25,1,954
05/05/99,11:15:01,12,150,-25,1,954
05/05/99,11:20:01,12,150,-25,1,954
05/05/99,11:25:01,23,160,-25,1,954
05/05/99,11:30:01,33,171,-25,1,954
05/05/99,11:35:01,22,155,-25,1,954
05/05/99,11:40:01,21,155,-25,1,954
05/05/99,11:45:01,11,155,-25,1,954
05/05/99,11:50:01,12,155,-25,1,954
05/05/99,11:55:01,2,155,-25,1,954
05/05/99,12:00:01,2,155,-25,1,954
05/05/99,12:05:01,2,155,-25,1,954
05/05/99,12:10:01,2,97,-25,1,954
05/05/99,12:15:01,2,97,-25,1,954
05/05/99,12:20:01,2,97,-25,1,954
05/05/99,12:25:01,2,73,-25,1,956
05/05/99,12:30:01,2,62,-25,1,956
05/05/99,12:35:01,2,62,-25,1,956
05/05/99,12:40:01,2,50,-25,1,956
05/05/99,12:45:01,2,50,-25,1,956
05/05/99,12:50:01,2,50,-25,1,956
05/05/99,12:55:01,2,50,-25,1,956
05/05/99,13:00:01,2,50,-25,1,956
05/05/99,13:05:01,2,50,-25,1,956
05/05/99,13:10:01,2,50,-25,1,956
05/05/99,13:15:01,2,310,-25,1,956
05/05/99,13:20:01,2,310,-25,1,956
05/05/99,13:25:01,13,284,-25,1,956
05/05/99,13:30:01,3,284,-25,1,956
05/05/99,13:35:01,13,250,-25,1,956
05/05/99,13:40:01,13,215,-25,1,956
05/05/99,13:45:01,13,215,-25,1,956
05/05/99,13:50:01,13,215,-25,1,956
05/05/99,13:55:01,13,203,-25,1,956
05/05/99,14:00:01,13,203,-25,1,956
05/05/99,14:05:01,23,203,-25,1,956
05/05/99,14:10:01,23,203,-25,1,956
05/05/99,14:15:01,23,203,-25,1,956
05/05/99,14:20:01,23,213,-25,1,956
05/05/99,14:25:01,23,213,-25,1,956
05/05/99,14:30:01,23,203,-25,1,956
05/05/99,14:35:01,33,203,-25,1,956
05/05/99,14:40:01,32,213,-25,1,956
05/05/99,14:45:01,32,213,-25,1,956
05/05/99,14:50:01,34,201,-25,1,956
05/05/99,14:55:01,34,201,-25,1,956
05/05/99,15:00:01,22,201,-25,1,956
05/05/99,15:05:01,11,201,-25,1,956
05/05/99,15:10:01,11,201,-25,1,956
05/05/99,15:15:01,11,201,-25,1,956
05/05/99,15:20:01,11,201,-25,1,956
05/05/99,15:25:01,11,201,-25,1,956
05/05/99,15:30:01,11,201,-25,1,956
05/05/99,15:35:01,1,201,-25,1,956
05/05/99,15:40:01,1,201,-25,1,956
05/05/99,15:45:01,1,201,-25,1,956
05/05/99,15:50:01,1,201,-25,1,956
05/05/99,15:55:01,1,201,-25,1,956
05/05/99,16:00:01,1,191,-25,1,956
05/05/99,16:05:01,1,191,-25,1,956
05/05/99,16:10:01,1,191,-25,1,956
05/05/99,16:15:01,1,191,-25,1,956
05/05/99,16:20:01,1,191,-25,1,956
05/05/99,16:25:01,1,191,-25,1,956
05/05/99,16:30:01,1,191,-25,1,956
05/05/99,16:35:01,1,191,-25,1,956
05/05/99,16:40:01,1,191,-25,1,956
05/05/99,16:45:01,1,191,-25,1,956
05/05/99,16:50:01,1,191,-25,1,956
05/05/99,16:55:01,1,191,-25,1,956
05/05/99,17:00:01,15,298,-25,1,956
05/05/99,17:05:01,3,298,-25,1,956
05/05/99,17:10:01,3,298,-25,1,956
05/05/99,17:15:01,3,298,-25,1,956
05/05/99,17:20:01,3,298,-25,1,956
05/05/99,17:25:01,3,298,-25,1,956
05/05/99,17:30:01,14,298,-25,1,956
05/05/99,17:35:01,4,298,-25,1,956
05/05/99,17:40:01,4,298,-25,1,956
05/05/99,17:45:01,21,298,-25,1,956
05/05/99,17:50:01,31,298,-25,1,956
05/05/99,17:55:01,24,310,-25,1,956
05/05/99,18:00:01,24,310,-25,1,956
05/05/99,18:05:01,24,310,-25,1,956
05/05/99,18:10:01,14,310,-25,1,956
05/05/99,18:15:01,18,310,-25,1,956
05/05/99,18:20:01,18,310,-25,1,956
05/05/99,18:25:01,17,323,-25,1,956
05/05/99,18:30:01,27,333,-25,1,956
05/05/99,18:35:01,27,343,-25,1,956
05/05/99,18:40:01,25,1,-25,1,956
05/05/99,18:45:01,25,11,-25,1,956
05/05/99,18:50:01,11,58,-25,1,956
05/05/99,18:55:01,22,69,-25,1,956
05/05/99,19:00:01,12,69,-25,1,956
05/05/99,19:05:01,12,39,-27,1,956
05/05/99,19:10:01,22,39,-27,1,956
05/05/99,19:15:01,22,39,-27,1,956
05/05/99,19:20:01,22,39,-27,1,956
05/05/99,19:25:01,22,39,-27,1,956
05/05/99,19:30:01,9,39,-27,1,956
05/05/99,19:35:01,9,39,-29,1,956
05/05/99,19:40:01,20,39,-29,1,956
05/05/99,19:45:01,9,39,-29,1,956
05/05/99,19:50:01,9,39,-29,1,956
05/05/99,19:55:01,9,60,-29,1,956
05/05/99,20:00:01,9,60,-29,1,956
05/05/99,20:05:01,9,60,-29,1,956
05/05/99,20:10:01,9,76,-29,1,956
05/05/99,20:15:01,9,170,-29,1,956
05/05/99,20:20:01,9,170,-29,1,956
05/05/99,20:25:01,9,170,-29,1,956
05/05/99,20:30:01,9,170,-29,1,956
05/05/99,20:35:01,9,170,-29,1,956
05/05/99,20:40:01,9,180,-29,1,956
05/05/99,20:45:01,9,192,-29,1,956
05/05/99,20:50:01,9,202,-29,1,956
05/05/99,20:55:01,9,252,-29,1,956
05/05/99,21:00:01,41,262,-29,1,956
05/05/99,21:05:01,38,273,-27,1,956
05/05/99,21:10:01,38,273,-27,1,956
05/05/99,21:15:01,38,273,-27,1,956
05/05/99,21:20:01,38,273,-27,1,956
05/05/99,21:25:01,38,273,-27,1,956
05/05/99,21:30:01,27,273,-27,1,956
05/05/99,21:35:01,27,273,-27,1,956
05/05/99,21:40:01,17,307,-27,1,956
05/05/99,21:45:01,17,328,-27,1,956
05/05/99,21:50:01,17,328,-27,1,956
05/05/99,21:55:01,7,315,-27,1,956
05/05/99,22:00:01,22,255,-27,1,956
05/05/99,22:05:01,21,243,-27,1,956
05/05/99,22:10:01,27,243,-27,1,956
05/05/99,22:15:01,52,217,-27,1,956
05/05/99,22:20:01,63,207,-27,1,956
05/05/99,22:25:01,73,184,-27,1,956
05/05/99,22:30:01,73,184,-27,1,956
05/05/99,22:35:01,109,184,-27,1,956
05/05/99,22:40:01,137,173,-27,1,956
05/05/99,22:45:01,155,173,-27,1,956
05/05/99,22:50:01,145,173,-27,1,956
05/05/99,22:55:01,145,173,-27,1,956
05/05/99,23:00:01,132,173,-27,1,956
05/05/99,23:05:01,125,173,-27,1,956
05/05/99,23:10:01,127,173,-27,1,956
05/05/99,23:15:01,126,173,-27,1,956
05/05/99,23:20:01,129,173,-27,1,956
05/05/99,23:25:01,135,173,-27,1,956
05/05/99,23:30:01,122,173,-27,1,956
05/05/99,23:35:01,144,173,-27,1,956
05/05/99,23:40:01,128,184,-27,1,956
05/05/99,23:45:01,144,184,-27,1,956
05/05/99,23:50:01,122,184,-27,1,956
05/05/99,23:55:01,99,173,-27,1,956
05/06/99,00:00:01,128,172,-27,1,956
